TimeAKDT,TemperatureF,Dew PointF,Humidity,Sea Level PressureIn,VisibilityMPH,Wind Direction,Wind SpeedMPH,Gust SpeedMPH,PrecipitationIn,Events,Conditions,WindDirDegrees,DateUTC
12:53 AM,-11.0,-17.0,75,30.02,10.0,Calm,Calm,-,N/A,,Scattered Clouds,0,2013-04-11 08:53:00
1:53 AM,-17.0,-22.0,78,30.04,10.0,Calm,Calm,-,N/A,,Scattered Clouds,0,2013-04-11 09:53:00
2:53 AM,-16.1,-22.0,74,30.06,10.0,NE,4.6,-,N/A,,Scattered Clouds,50,2013-04-11 10:53:00
3:53 AM,-18.9,-24.0,78,30.08,10.0,NE,3.5,-,N/A,,Scattered Clouds,50,2013-04-11 11:53:00
4:53 AM,-17.0,-22.0,78,30.10,10.0,Calm,Calm,-,N/A,,Scattered Clouds,0,2013-04-11 12:53:00
5:53 AM,-16.1,-22.0,74,30.11,10.0,Calm,Calm,-,N/A,,Scattered Clouds,0,2013-04-11 13:53:00
6:53 AM,-18.0,-24.0,74,30.13,10.0,Calm,Calm,-,N/A,,Mostly Cloudy,0,2013-04-11 14:53:00
7:53 AM,-15.0,-20.0,78,30.14,10.0,Calm,Calm,-,N/A,,Mostly Cloudy,0,2013-04-11 15:53:00
8:53 AM,-11.0,-16.1,78,30.16,10.0,NE,4.6,-,N/A,,Mostly Cloudy,50,2013-04-11 16:53:00
9:53 AM,-5.1,-8.0,87,30.17,10.0,Calm,Calm,-,N/A,,Mostly Cloudy,0,2013-04-11 17:53:00
10:53 AM,-0.0,-9.0,66,30.18,10.0,Calm,Calm,-,N/A,,Mostly Cloudy,0,2013-04-11 18:53:00
11:53 AM,1.9,-9.9,58,30.19,10.0,Calm,Calm,-,N/A,,Mostly Cloudy,0,2013-04-11 19:53:00
12:53 PM,6.1,-8.0,53,30.19,10.0,South,3.5,-,N/A,,Overcast,180,2013-04-11 20:53:00
1:53 PM,9.0,-5.1,53,30.20,10.0,South,4.6,-,N/A,,Overcast,190,2013-04-11 21:53:00
2:53 PM,12.0,-2.9,51,30.19,10.0,South,10.4,-,N/A,,Mostly Cloudy,190,2013-04-11 22:53:00
3:53 PM,12.9,-2.0,51,30.19,10.0,South,9.2,-,N/A,,Mostly Cloudy,190,2013-04-11 23:53:00
4:53 PM,14.0,-2.0,49,30.19,10.0,Calm,Calm,-,N/A,,Overcast,0,2013-04-12 00:53:00
5:53 PM,15.1,-5.1,41,30.19,10.0,WSW,3.5,-,N/A,,Overcast,240,2013-04-12 01:53:00
6:53 PM,15.1,-5.1,41,30.20,10.0,WNW,6.9,-,N/A,,Overcast,290,2013-04-12 02:53:00
7:53 PM,14.0,-4.0,45,30.21,10.0,West,5.8,-,N/A,,Overcast,280,2013-04-12 03:53:00
8:53 PM,12.9,-4.0,47,30.23,10.0,Calm,Calm,-,N/A,,Overcast,0,2013-04-12 04:53:00
9:53 PM,10.0,-2.9,56,30.25,10.0,Calm,Calm,-,N/A,,Overcast,0,2013-04-12 05:53:00
10:53 PM,5.0,-4.0,66,30.26,10.0,Calm,Calm,-,N/A,,Mostly Cloudy,0,2013-04-12 06:53:00
11:53 PM,1.0,-7.1,69,30.28,10.0,Calm,Calm,-,N/A,,Mostly Cloudy,0,2013-04-12 07:53:00